SCP
0 0 0 0 0 0 0 0 0 0 0 0 0 0 0 0 0 0 0 0 0 0 0 0 0 0 0 0 0 0 0 0 0 0 0 0 0 0 0 0 0 0 0
0 0 0 0 0 0 0 0 0 0 0 0 0 0 0 0 0 0 0 0 0 0 0 0 0 0 0 0 0 0 0 0 0 0 0 0 0 0 0 0 0 0 0
0 0 0 0 0 0 0 0 0 0 0 0 0 0 0 0 0 0 0 0 0 0 0 0 0 0 0 0 0 0 0 0 0 0 0 0 0 0 0 0 0 0 0
0 0 0 0 0 0 0 0 0 0 0 0 0 0 0 0 0 0 0 0 0 0 0 0 0 0 0 0 0 0 0 0 0 0 0 0 0 0 0 0 0 0 0
0 0 0 0 0 0 0 0 0 0 0 0 0 0 0 0 0 0 0 0 0 0 0 0 0 0 0 0 0 0 0 0 0 0 0 0 0 0 0 0 0 0 0
0 0 0 0 0 0 0 0 0 0 0 0 0 0 0 0 0 0 0 0 0 0 0 0 0 0 0 0 0 0 0 0 0 0 0 0 0 0 0 0 0 0 0
0 0 0 0 0 0 0 0 0 0 0 0 0 0 0 0 0 0 0 0 0 0 0 0 0 0 0 0 0 0 0 0 0 0 0 0 0 0 0 0 0 0 0
0 0 0 0 0 0 0 0 0 0 0 0 0 0 0 0 0 0 0 0 0 0 0 0 0 0 0 0 0 0 0 0 0 0 0 0 0 0 0 0 0 0 0
0 0 0 0 0 0 0 0 0 0 0 0 0 0 0 0 0 0 0 0 0 0 0 0 0 0 0 0 0 0 0 0 0 0 0 0 0 0 0 0 0 0 0
0 0 0 0 0 0 0 0 0 0 0 0 0 0 0 0 0 0 0 0 0 0 0 0 0 0 0 0 0 0 0 0 0 0 0 0 0 0 0 0 0 0 0
0 0 0 0 0 0 0 0 0 0 0 0 0 0 0 0 0 0 0 0 0 0 0 0 0 0 0 0 0 0 0 0 0 0 0 0 0 0 0 0 0 0 0
0 0 0 0 0 0 0 0 0 0 0 0 0 0 0 0 0 0 0 0 0 0 0 0 0 0 0 0 0 0 0 0 0 0 0 0 0 0 0 0 0 0 0
0 0 0 0 0 0 0 0 0 0 0 0 0 0 0 0 0 0 0 0 0 0 0 0 0 0 0 0 0 0 0 0 0 0 0 0 0 0 0 0 0 0 0
0 0 0 0 0 0 0 0 0 0 0 0 0 0 0 0 0 0 0 0 0 0 0 0 0 0 0 0 0 0 0 0 0 0 0 0 0 0 0 0 0 0 0
0 0 0 0 0 0 0 0 0 0 0 0 0 0 0 0 0 0 0 0 0 0 0 0 0 0 0 0 0 0 0 0 0 0 0 0 0 0 0 0 0 0 0
0 0 0 0 0 0 0 0 0 0 0 0 0 0 0 0 0 0 0 0 0 0 0 0 0 0 0 0 0 0 0 0 0 0 0 0 0 0 0 0 0 0 0
0 0 0 0 0 0 0 0 0 0 0 0 0 0 0 0 0 0 0 0 0 0 0 0 0 0 0 0 0 0 0 0 0 0 0 0 0 0 0 0 0 0 0
0 0 0 0 0 0 0 0 0 0 0 0 0 0 0 0 0 0 0 0 0 0 0 0 0 0 0 0 0 0 0 0 0 0 0 0 0 0 0 0 0 0 0
0 0 0 0 0 0 0 0 0 0 0 0 0 0 0 0 0 0 0 0 0 0 0 0 0 0 0 0 0 0 0 0 0 0 0 0 0 0 0 0 0 0 0
0 0 0 0 0 0 0 0 0 0 0 0 0 0 0 0 0 0 0 0 0 0 0 0 0 0 0 0 0 0 0 0 0 0 0 0 0 0 0 0 0 0 0
0 0 0 0 0 0 0 0 0 0 0 0 0 0 0 0 0 0 0 0 0 0 0 0 0 0 0 0 0 0 0 0 0 0 0 0 0 0 0 0 0 0 0
0 0 0 0 0 0 0 0 0 0 0 0 0 0 0 0 0 0 0 0 0 0 0 0 0 0 0 0 0 0 0 0 0 0 0 0 0 0 0 0 0 0 0
0 0 0 0 0 0 0 0 0 0 0 0 0 0 0 0 0 0 0 0 0 0 0 0 0 0 0 0 0 0 0 0 0 0 0 0 0 0 0 0 0 0 0
0 0 0 0 0 0 0 0 0 0 0 0 0 0 0 0 0 0 0 0 0 0 0 0 0 0 0 0 0 0 0 0 0 0 0 0 0 0 0 0 0 0 0
0 0 0 0 0 0 0 0 0 0 0 0 0 0 0 0 0 0 0 0 0 0 0 0 0 0 0 0 0 0 0 0 0 0 0 0 0 0 0 0 0 0 0
0 0 0 0 0 0 0 0 0 0 0 0 0 0 0 0 0 0 0 0 0 0 0 0 0 0 0 0 0 0 0 0 0 0 0 0 0 0 0 0 0 0 0
Wind_Speed_500mb
8 7 7 10 13 17 20 25 32 37 43 45 47 50 46 47 48 53 55 57 60 62 66 69 72 71 73 70 71 72 73 75 87 90 89 87 87 87 84 85 84 86 100
6 6 6 5 6 9 13 17 19 22 26 31 34 37 42 48 54 58 60 62 64 65 64 65 68 65 68 68 71 71 73 75 82 94 90 90 87 81 82 84 84 84 88
5 5 6 7 7 8 8 9 11 14 19 23 26 28 30 35 39 41 44 46 50 53 56 59 62 63 65 64 64 72 73 75 78 85 89 94 89 86 84 85 84 85 85
6 6 6 6 7 9 9 11 13 14 16 20 22 24 27 30 32 34 37 41 43 46 49 54 57 60 62 62 65 72 76 78 79 81 83 87 90 88 85 84 86 87 86
9 8 6 7 7 7 8 11 14 17 21 24 26 29 33 34 35 39 43 45 48 50 55 57 58 61 64 65 72 75 78 78 77 79 83 85 88 89 92 91 85 82 83
10 9 10 9 10 10 11 12 16 19 23 27 31 34 37 41 47 52 56 60 61 64 67 68 70 69 69 69 70 71 72 75 79 81 84 88 90 88 84 81 76 76 79
6 6 6 8 10 12 15 17 19 23 25 28 30 33 35 39 43 47 51 57 62 66 70 72 73 73 72 71 71 74 76 73 72 73 80 84 85 84 78 73 71 74 82
4 6 9 12 15 19 22 25 28 32 35 39 41 44 44 45 47 48 51 54 59 61 64 66 68 69 67 66 69 73 72 72 69 68 77 79 77 75 75 68 63 60 68
9 14 19 23 26 30 33 36 38 41 43 45 47 48 49 46 49 48 49 51 52 54 56 56 57 59 58 60 67 71 72 72 66 61 62 64 62 65 63 58 64 60 67
24 28 31 34 37 39 42 43 45 47 47 49 48 50 52 51 52 53 53 56 58 57 56 55 48 46 51 54 60 62 68 65 59 57 54 52 52 55 56 55 55 61 64
31 34 37 41 44 48 50 52 55 56 56 55 57 55 55 56 52 52 52 53 54 57 58 60 58 48 49 55 57 55 57 50 51 50 49 46 45 49 54 57 57 59 66
34 36 37 39 42 46 50 52 54 58 62 62 62 62 58 56 56 55 52 52 52 56 60 63 62 59 50 49 51 48 43 41 47 51 44 43 48 50 53 55 52 51 52
32 35 39 42 47 51 55 56 57 57 61 64 65 66 64 58 56 58 56 52 53 53 57 60 59 54 50 47 42 37 37 38 42 43 43 45 42 35 40 48 49 48 47
33 37 40 42 43 45 49 54 57 56 57 60 63 64 64 62 59 56 58 58 50 49 50 51 51 49 42 37 32 29 31 33 31 36 43 46 43 41 40 41 46 46 48
32 35 38 41 46 48 48 50 51 52 56 59 60 62 63 63 58 53 55 58 56 51 49 50 48 43 37 32 30 28 28 32 33 33 39 43 47 45 37 36 40 48 50
32 37 41 44 46 50 53 53 48 54 55 57 58 55 57 55 54 56 58 60 59 42 42 42 46 40 35 31 28 26 25 28 29 27 28 34 40 41 40 41 41 46 51
33 37 41 46 50 53 55 58 64 54 53 55 54 47 47 54 56 60 59 55 49 38 41 44 40 36 32 28 26 26 26 25 25 26 24 29 35 38 42 43 42 41 41
37 43 47 50 52 55 57 58 59 61 64 61 51 46 46 45 45 48 49 49 47 38 39 42 40 33 29 27 26 24 24 26 24 23 21 23 25 29 34 35 38 41 43
39 45 50 53 55 56 57 57 55 55 55 57 55 50 40 42 40 41 42 43 42 39 39 38 38 34 31 27 24 24 23 21 20 20 19 19 21 24 28 30 32 33 33
40 46 50 52 53 53 54 54 53 51 49 46 45 47 46 39 40 38 36 35 33 32 31 31 30 30 30 30 29 26 23 21 20 19 20 20 21 23 25 27 27 29 30
40 42 46 48 49 50 51 51 50 48 45 41 40 40 46 40 38 36 34 32 30 29 28 27 25 25 25 25 25 26 27 26 26 26 27 27 27 26 24 24 25 26 27
37 40 42 44 45 45 45 45 45 44 43 41 39 38 39 36 34 33 34 33 32 31 30 27 25 24 23 22 22 22 23 25 26 26 27 27 28 28 27 27 26 25 24
32 35 37 39 41 41 40 39 38 37 36 36 36 35 35 34 33 32 32 31 30 29 29 29 28 27 27 27 26 25 24 24 25 25 26 27 28 28 27 26 26 25 26
29 32 33 34 34 33 33 32 32 31 31 30 30 29 29 28 27 26 24 24 23 23 23 23 22 21 19 19 18 18 18 17 17 17 18 19 20 20 21 23 26 28 29
28 29 31 32 32 31 30 30 30 29 29 28 28 27 26 25 24 23 22 22 22 22 22 22 22 22 22 22 21 21 22 24 25 26 26 27 27 28 29 29 29 30 31
26 28 29 29 30 31 32 32 32 32 32 31 31 31 31 30 30 29 28 27 27 27 27 27 27 27 26 26 27 28 30 33 32 29 29 28 28 27 26 26 25 24 24
Wind_Direction_500mb
14 346 307 282 271 266 263 259 255 253 253 256 257 261 266 267 273 272 273 275 275 276 278 280 282 283 283 282 282 281 280 277 273 280 277 278 275 276 273 274 268 258 247
357 345 339 320 293 278 275 272 267 264 261 262 265 267 269 271 272 273 274 274 275 275 277 277 279 281 282 282 281 281 281 281 278 280 283 281 279 279 277 274 272 268 262
12 344 353 4 5 346 325 296 286 278 274 272 270 271 273 273 273 274 276 278 279 280 281 281 282 280 279 279 283 283 284 282 280 280 283 282 282 282 280 277 272 267 261
28 14 352 323 309 309 311 317 310 301 293 290 289 286 280 277 277 278 278 280 281 283 285 285 284 282 282 280 278 279 280 282 282 282 283 284 285 284 280 275 271 268 262
77 66 63 49 28 353 322 307 301 297 293 290 289 289 286 281 277 272 270 269 269 271 273 272 274 275 276 278 278 279 281 280 278 278 278 279 279 279 279 280 275 271 265
72 58 46 30 16 3 355 345 333 325 321 314 309 303 299 294 291 290 288 287 284 284 286 286 285 282 281 279 278 278 280 280 277 277 278 276 279 280 280 277 275 261 250
64 48 31 19 8 1 358 353 346 342 338 333 328 321 316 309 305 301 297 294 291 291 290 289 287 286 284 283 284 283 281 280 279 277 273 275 278 279 282 278 273 265 263
32 0 351 347 342 341 338 335 332 330 328 326 325 322 319 318 313 309 305 302 298 295 293 292 291 291 292 292 288 286 285 283 282 277 274 278 276 276 277 278 279 278 261
321 327 325 324 323 321 321 319 320 319 319 319 319 318 317 317 314 312 310 306 303 301 297 294 292 292 294 288 286 286 285 283 284 280 276 274 271 268 268 267 260 251 243
321 323 323 321 319 318 316 315 315 313 312 312 311 311 310 309 308 308 308 308 307 305 305 304 300 294 287 284 284 286 286 290 289 285 279 275 271 265 261 257 257 251 244
315 316 315 314 313 312 312 313 312 311 309 310 309 309 307 305 303 302 303 304 304 304 306 306 306 303 291 288 285 285 287 294 292 288 287 280 273 268 261 259 257 256 251
307 308 309 310 310 311 312 312 312 312 311 310 307 305 304 302 299 298 298 299 301 303 306 305 305 305 302 294 289 285 285 287 283 284 282 277 279 273 266 264 264 260 247
304 305 306 308 309 310 310 309 308 308 308 309 309 307 305 302 298 296 297 299 301 302 302 302 303 304 303 295 289 282 279 282 283 278 276 279 282 280 276 263 260 254 248
307 307 308 309 310 311 312 314 313 313 311 310 308 305 303 301 299 301 300 301 302 301 299 300 301 303 305 301 290 283 282 289 284 275 278 281 285 287 280 268 258 252 252
307 310 311 312 313 313 313 314 313 313 312 310 308 304 300 298 302 305 306 309 310 305 304 307 310 311 311 306 299 296 286 284 288 282 272 272 281 286 279 272 257 254 250
310 312 313 315 316 316 315 313 312 310 308 307 307 302 296 291 295 296 298 296 296 294 296 299 302 307 309 306 300 302 301 296 293 295 283 279 281 277 282 275 266 259 259
314 317 320 320 320 318 317 316 314 310 308 305 305 304 291 291 293 294 293 292 289 281 278 286 297 303 302 301 297 296 304 306 296 291 284 282 287 285 282 277 274 265 264
320 319 320 319 318 318 317 316 315 315 314 313 311 310 305 301 299 296 295 298 297 285 276 281 289 295 300 297 291 290 295 299 302 302 294 288 284 284 285 281 276 271 269
312 314 315 316 316 316 315 313 313 312 311 312 314 310 308 305 303 299 299 298 296 286 272 270 279 286 287 294 295 289 288 290 287 292 299 298 291 286 284 282 278 275 274
308 310 310 310 310 310 310 309 309 308 308 309 309 308 307 307 303 303 305 305 302 293 284 279 282 288 289 287 286 288 284 286 286 284 285 289 291 290 290 288 285 281 278
308 308 309 310 311 311 310 309 309 308 307 305 303 301 300 302 300 301 303 307 305 302 297 294 292 291 291 291 288 287 286 285 282 280 281 281 280 279 279 278 279 281 279
309 310 310 311 311 310 309 308 307 306 305 302 300 297 298 299 298 298 299 301 302 300 299 300 299 296 293 291 287 284 282 282 280 281 281 281 280 278 275 274 274 274 274
310 311 311 311 310 309 309 309 308 308 307 306 304 302 300 300 299 299 300 300 299 297 296 295 294 295 294 293 291 290 288 286 286 283 281 279 278 277 278 278 274 270 267
311 311 312 311 309 309 310 310 310 311 311 310 310 310 310 309 308 307 307 307 308 308 308 306 304 303 301 300 300 302 303 305 307 305 303 300 295 290 285 281 279 276 273
308 310 311 309 309 308 309 310 309 310 311 312 313 312 312 311 310 310 310 310 310 309 308 308 308 309 310 309 307 306 305 304 305 304 301 296 291 286 284 280 277 274 271
303 304 304 303 304 305 307 307 306 307 308 308 308 308 308 308 308 308 307 306 305 304 304 304 304 305 305 306 305 302 299 298 299 299 295 293 291 288 285 282 280 277 275
Wind_Speed_850mb
8 7 7 10 13 17 20 25 32 37 43 45 47 50 46 47 48 53 55 57 60 62 66 69 72 71 73 70 71 72 73 75 87 90 89 87 87 87 84 85 84 86 100
6 6 6 5 6 9 13 17 19 22 26 31 34 37 42 48 54 58 60 62 64 65 64 65 68 65 68 68 71 71 73 75 82 94 90 90 87 81 82 84 84 84 88
5 5 6 7 7 8 8 9 11 14 19 23 26 28 30 35 39 41 44 46 50 53 56 59 62 63 65 64 64 72 73 75 78 85 89 94 89 86 84 85 84 85 85
6 6 6 6 7 9 9 11 13 14 16 20 22 24 27 30 32 34 37 41 43 46 49 54 57 60 62 62 65 72 76 78 79 81 83 87 90 88 85 84 86 87 86
9 8 6 7 7 7 8 11 14 17 21 24 26 29 33 34 35 39 43 45 48 50 55 57 58 61 64 65 72 75 78 78 77 79 83 85 88 89 92 91 85 82 83
10 9 10 9 10 10 11 12 16 19 23 27 31 34 37 41 47 52 56 60 61 64 67 68 70 69 69 69 70 71 72 75 79 81 84 88 90 88 84 81 76 76 79
6 6 6 8 10 12 15 17 19 23 25 28 30 33 35 39 43 47 51 57 62 66 70 72 73 73 72 71 71 74 76 73 72 73 80 84 85 84 78 73 71 74 82
4 6 9 12 15 19 22 25 28 32 35 39 41 44 44 45 47 48 51 54 59 61 64 66 68 69 67 66 69 73 72 72 69 68 77 79 77 75 75 68 63 60 68
9 14 19 23 26 30 33 36 38 41 43 45 47 48 49 46 49 48 49 51 52 54 56 56 57 59 58 60 67 71 72 72 66 61 62 64 62 65 63 58 64 60 67
24 28 31 34 37 39 42 43 45 47 47 49 48 50 52 51 52 53 53 56 58 57 56 55 48 46 51 54 60 62 68 65 59 57 54 52 52 55 56 55 55 61 64
31 34 37 41 44 48 50 52 55 56 56 55 57 55 55 56 52 52 52 53 54 57 58 60 58 48 49 55 57 55 57 50 51 50 49 46 45 49 54 57 57 59 66
34 36 37 39 42 46 50 52 54 58 62 62 62 62 58 56 56 55 52 52 52 56 60 63 62 59 50 49 51 48 43 41 47 51 44 43 48 50 53 55 52 51 52
32 35 39 42 47 51 55 56 57 57 61 64 65 66 64 58 56 58 56 52 53 53 57 60 59 54 50 47 42 37 37 38 42 43 43 45 42 35 40 48 49 48 47
33 37 40 42 43 45 49 54 57 56 57 60 63 64 64 62 59 56 58 58 50 49 50 51 51 49 42 37 32 29 31 33 31 36 43 46 43 41 40 41 46 46 48
32 35 38 41 46 48 48 50 51 52 56 59 60 62 63 63 58 53 55 58 56 51 49 50 48 43 37 32 30 28 28 32 33 33 39 43 47 45 37 36 40 48 50
32 37 41 44 46 50 53 53 48 54 55 57 58 55 57 55 54 56 58 60 59 42 42 42 46 40 35 31 28 26 25 28 29 27 28 34 40 41 40 41 41 46 51
33 37 41 46 50 53 55 58 64 54 53 55 54 47 47 54 56 60 59 55 49 38 41 44 40 36 32 28 26 26 26 25 25 26 24 29 35 38 42 43 42 41 41
37 43 47 50 52 55 57 58 59 61 64 61 51 46 46 45 45 48 49 49 47 38 39 42 40 33 29 27 26 24 24 26 24 23 21 23 25 29 34 35 38 41 43
39 45 50 53 55 56 57 57 55 55 55 57 55 50 40 42 40 41 42 43 42 39 39 38 38 34 31 27 24 24 23 21 20 20 19 19 21 24 28 30 32 33 33
40 46 50 52 53 53 54 54 53 51 49 46 45 47 46 39 40 38 36 35 33 32 31 31 30 30 30 30 29 26 23 21 20 19 20 20 21 23 25 27 27 29 30
40 42 46 48 49 50 51 51 50 48 45 41 40 40 46 40 38 36 34 32 30 29 28 27 25 25 25 25 25 26 27 26 26 26 27 27 27 26 24 24 25 26 27
37 40 42 44 45 45 45 45 45 44 43 41 39 38 39 36 34 33 34 33 32 31 30 27 25 24 23 22 22 22 23 25 26 26 27 27 28 28 27 27 26 25 24
32 35 37 39 41 41 40 39 38 37 36 36 36 35 35 34 33 32 32 31 30 29 29 29 28 27 27 27 26 25 24 24 25 25 26 27 28 28 27 26 26 25 26
29 32 33 34 34 33 33 32 32 31 31 30 30 29 29 28 27 26 24 24 23 23 23 23 22 21 19 19 18 18 18 17 17 17 18 19 20 20 21 23 26 28 29
28 29 31 32 32 31 30 30 30 29 29 28 28 27 26 25 24 23 22 22 22 22 22 22 22 22 22 22 21 21 22 24 25 26 26 27 27 28 29 29 29 30 31
26 28 29 29 30 31 32 32 32 32 32 31 31 31 31 30 30 29 28 27 27 27 27 27 27 27 26 26 27 28 30 33 32 29 29 28 28 27 26 26 25 24 24
Wind_Direction_850mb
14 346 307 282 271 266 263 259 255 253 253 256 257 261 266 267 273 272 273 275 275 276 278 280 282 283 283 282 282 281 280 277 273 280 277 278 275 276 273 274 268 258 247
357 345 339 320 293 278 275 272 267 264 261 262 265 267 269 271 272 273 274 274 275 275 277 277 279 281 282 282 281 281 281 281 278 280 283 281 279 279 277 274 272 268 262
12 344 353 4 5 346 325 296 286 278 274 272 270 271 273 273 273 274 276 278 279 280 281 281 282 280 279 279 283 283 284 282 280 280 283 282 282 282 280 277 272 267 261
28 14 352 323 309 309 311 317 310 301 293 290 289 286 280 277 277 278 278 280 281 283 285 285 284 282 282 280 278 279 280 282 282 282 283 284 285 284 280 275 271 268 262
77 66 63 49 28 353 322 307 301 297 293 290 289 289 286 281 277 272 270 269 269 271 273 272 274 275 276 278 278 279 281 280 278 278 278 279 279 279 279 280 275 271 265
72 58 46 30 16 3 355 345 333 325 321 314 309 303 299 294 291 290 288 287 284 284 286 286 285 282 281 279 278 278 280 280 277 277 278 276 279 280 280 277 275 261 250
64 48 31 19 8 1 358 353 346 342 338 333 328 321 316 309 305 301 297 294 291 291 290 289 287 286 284 283 284 283 281 280 279 277 273 275 278 279 282 278 273 265 263
32 0 351 347 342 341 338 335 332 330 328 326 325 322 319 318 313 309 305 302 298 295 293 292 291 291 292 292 288 286 285 283 282 277 274 278 276 276 277 278 279 278 261
321 327 325 324 323 321 321 319 320 319 319 319 319 318 317 317 314 312 310 306 303 301 297 294 292 292 294 288 286 286 285 283 284 280 276 274 271 268 268 267 260 251 243
321 323 323 321 319 318 316 315 315 313 312 312 311 311 310 309 308 308 308 308 307 305 305 304 300 294 287 284 284 286 286 290 289 285 279 275 271 265 261 257 257 251 244
315 316 315 314 313 312 312 313 312 311 309 310 309 309 307 305 303 302 303 304 304 304 306 306 306 303 291 288 285 285 287 294 292 288 287 280 273 268 261 259 257 256 251
307 308 309 310 310 311 312 312 312 312 311 310 307 305 304 302 299 298 298 299 301 303 306 305 305 305 302 294 289 285 285 287 283 284 282 277 279 273 266 264 264 260 247
304 305 306 308 309 310 310 309 308 308 308 309 309 307 305 302 298 296 297 299 301 302 302 302 303 304 303 295 289 282 279 282 283 278 276 279 282 280 276 263 260 254 248
307 307 308 309 310 311 312 314 313 313 311 310 308 305 303 301 299 301 300 301 302 301 299 300 301 303 305 301 290 283 282 289 284 275 278 281 285 287 280 268 258 252 252
307 310 311 312 313 313 313 314 313 313 312 310 308 304 300 298 302 305 306 309 310 305 304 307 310 311 311 306 299 296 286 284 288 282 272 272 281 286 279 272 257 254 250
310 312 313 315 316 316 315 313 312 310 308 307 307 302 296 291 295 296 298 296 296 294 296 299 302 307 309 306 300 302 301 296 293 295 283 279 281 277 282 275 266 259 259
314 317 320 320 320 318 317 316 314 310 308 305 305 304 291 291 293 294 293 292 289 281 278 286 297 303 302 301 297 296 304 306 296 291 284 282 287 285 282 277 274 265 264
320 319 320 319 318 318 317 316 315 315 314 313 311 310 305 301 299 296 295 298 297 285 276 281 289 295 300 297 291 290 295 299 302 302 294 288 284 284 285 281 276 271 269
312 314 315 316 316 316 315 313 313 312 311 312 314 310 308 305 303 299 299 298 296 286 272 270 279 286 287 294 295 289 288 290 287 292 299 298 291 286 284 282 278 275 274
308 310 310 310 310 310 310 309 309 308 308 309 309 308 307 307 303 303 305 305 302 293 284 279 282 288 289 287 286 288 284 286 286 284 285 289 291 290 290 288 285 281 278
308 308 309 310 311 311 310 309 309 308 307 305 303 301 300 302 300 301 303 307 305 302 297 294 292 291 291 291 288 287 286 285 282 280 281 281 280 279 279 278 279 281 279
309 310 310 311 311 310 309 308 307 306 305 302 300 297 298 299 298 298 299 301 302 300 299 300 299 296 293 291 287 284 282 282 280 281 281 281 280 278 275 274 274 274 274
310 311 311 311 310 309 309 309 308 308 307 306 304 302 300 300 299 299 300 300 299 297 296 295 294 295 294 293 291 290 288 286 286 283 281 279 278 277 278 278 274 270 267
311 311 312 311 309 309 310 310 310 311 311 310 310 310 310 309 308 307 307 307 308 308 308 306 304 303 301 300 300 302 303 305 307 305 303 300 295 290 285 281 279 276 273
308 310 311 309 309 308 309 310 309 310 311 312 313 312 312 311 310 310 310 310 310 309 308 308 308 309 310 309 307 306 305 304 305 304 301 296 291 286 284 280 277 274 271
303 304 304 303 304 305 307 307 306 307 308 308 308 308 308 308 308 308 307 306 305 304 304 304 304 305 305 306 305 302 299 298 299 299 295 293 291 288 285 282 280 277 275